Volver al catálogo

CAS-2T

CZ-11 R/B

ActivoRadioaficionadoSSO
NORAD 41847·PAYLOAD·🇨🇳 China

Lanzado Nov 9, 2016 desde Jiuquan Satellite Launch Center

Loading…

Próximos Pases (próximas 24 horas)

TLE

ActualizadoSource: AMSAT

Época: Sep 14, 2026, 05:34 UTC

1 41847U 16066G   26257.23211286  .00000860  00000-0  13003-3 0  9994
2 41847  98.3755 331.9432 0340498 219.1767 138.4327 14.44840123517652

Sigue CAS-2T en tiempo real con AllMySat

Download on the App Store